Aérodrome :
LOGIN :

S'inscrire | Disclaimer

   EN    FR    IT 

 










Légende :    VFR   VFR Marginal   IFR   IFR Intensif   IFR Très Intensif
Visi : 
Plafond : 
>= 8 km
>= 3000ft
5 à 8 km
1000 à 3000 ft
1500m à 5 km
500 à 1000 ft
800 à 1500m
200 à 500 ft
< 800m
< 200 ft
Symboles :   Orages  Brouillard  Fortes neiges  Fortes précipitations  Vent > 20 kt
SIGMETs :   Divers  Orages  Givrage  Turbulence  Onde Orograph.  Cendres Volcan.







- Altitude de l'aérodrome : 13 ft
- Code IATA : OST


EBOS - Oostend bruges Int.

DERNIER METAR :
  • 171420Z 32008KT CAVOK 18/13 Q1019 NOSIG

METARs EXPIRÉS :
  • 171350Z 32008KT CAVOK 19/14 Q1019 NOSIG
  • 171320Z 31008KT CAVOK 18/14 Q1019 NOSIG
  • 171250Z 32008KT CAVOK 18/14 Q1019 NOSIG
  • 171220Z 32007KT 9999 SCT042 19/15 Q1019 NOSIG
  • 171150Z 32008KT 9999 SCT042 19/14 Q1019 NOSIG

TAF TAF EBOS
Valide du 17 à 12h jusqu'au 18 à 18h UTC


171110Z 1712/1818 31008KT SCT030
PROB30
TEMPO 1815/1818 SHRA TSRA
Pas de NOTAMs connus pour ce terrain.



MET'MAP, la Météo Aéronautique d'un coup d'oeil ! - Copyright ORBIFLY Décembre 2007 - Disclaimer

ORBIFLY MET'MAP TEAM :

Programmation & Développement : Alexandra Zaïnal
Conception & Développement : Baudouin d'Aumeries
Co-Programmation & Développement : Marc-Olivier Méhu
Soutien technique & logistique : Manuel Goepfert

Contact : metmap@orbifly.com




SOURCES & CREDITS :

   NOAA